SCP
0 0 0 0 0 0 0 0 0 0 0 0 0 0 0 0 0 0 0 0 0 0 0 0 0 0 0 0 0 0 0 0 0 0 0 0 0 0 0 0 0 0 0
0 0 0 0 0 0 0 0 0 0 0 0 0 0 0 0 0 0 0 0 0 0 0 0 0 0 0 0 0 0 0 0 0 0 0 0 0 0 0 0 0 0 0
0 0 0 0 0 0 0 0 0 0 0 0 0 0 0 0 0 0 0 0 0 0 0 0 0 0 0 0 0 0 0 0 0 0 -0 -0 0 0 0 0 0 0 0
0 0 0 0 0 0 0 0 0 0 0 0 0 0 0 0 0 0 0 0 0 0 0 0 0 0 0 0 0 0 0 0 0 -0 0 0 0 -0 0 0 0 -0 -0
0 0 0 0 0 0 0 0 0 0 0 0 0 0 0 0 0 0 0 0 0 0 0 0 0 0 0 0 0 0 0 0 0 0 0 0 0 0 -0 0 0 -0 -0
0 0 0 0 0 0 0 0 0 0 0 0 0 0 0 0 0 0 0 0 0 0 0 0 0 0 0 0 0 0 0 0 0 0 0 0 -0 -0 -0 0 0 -0 -0
0 0 0 0 0 0 0 0 0 0 0 0 0 0 0 0 0 0 0 0 0 0 0 0 0 0 0 0 0 0 0 0 0 0 0 0 -0 -0 -0 -0 -0 -0 -0
0 0 0 0 0 0 0 0 0 0 0 0 0 0 0 0 0 0 0 0 0 0 0 0 0 0 0 0 0 0 0 0 0 0 0 0 -0 -0 -0 -0 -0 -0 -0
0 0 0 0 0 0 0 0 0 0 0 0 0 0 0 0 0 0 0 0 0 0 0 0 0 0 0 0 0 0 0 0 0 0 0 0 0 -0 -0 -0 -0 -0 -0
0 0 0 0 0 0 0 0 0 0 0 0 0 0 0 0 0 0 0 0 0 0 0 0 0 0 0 0 0 0 0 0 0 0 0 0 0 0 -0 -0 -0 -0 -0
0 0 0 0 0 0 0 0 0 0 0 0 0 0 0 0 0 0 0 0 0 0 0 0 0 0 0 0 0 0 0 0 0 0 0 0 0 0 -0 -0 -0 -0 -0
0 0 0 0 0 0 0 0 0 0 0 0 0 0 0 0 0 0 0 0 0 0 0 0 0 0 0 0 0 0 0 0 0 0 0 0 0 0 0 -0 -0 -0 -0
0 0 0 0 0 0 0 0 0 0 0 0 0 0 0 0 0 0 0 0 0 0 0 0 0 0 0 0 0 0 0 0 0 0 0 0 0 0 0 0 -0 -0 -0
0 0 0 0 0 0 0 0 0 0 0 0 0 0 0 0 0 0 0 0 0 0 0 0 0 0 0 0 0 0 0 0 0 0 0 0 0 0 0 0 -0 -0 -0
0 0 0 0 0 0 0 0 0 0 0 0 0 0 0 0 0 0 0 0 0 0 0 0 0 0 0 0 0 0 0 0 0 0 0 0 0 0 0 -0 -0 -0 -0
0 0 0 0 0 0 0 0 0 0 0 0 0 0 0 0 0 0 0 0 0 0 0 0 0 0 0 0 0 0 0 0 0 0 0 0 0 0 0 0 0 0 0
0 0 0 0 0 0 0 0 0 0 0 0 0 0 0 0 0 0 0 0 0 0 0 0 0 0 0 0 0 0 0 0 0 0 0 0 0 0 0 0 0 0 0
0 0 0 0 0 0 0 0 0 0 0 0 0 0 0 0 0 0 0 0 0 0 0 0 0 0 0 0 0 0 0 0 0 0 0 0 0 0 0 0 0 0 0
0 0 0 0 0 0 0 0 0 0 0 0 0 0 0 0 0 0 0 0 0 0 0 0 0 0 0 0 0 0 0 0 0 0 0 0 0 0 0 0 0 0 0
0 0 0 0 0 0 0 0 0 0 0 0 0 0 0 0 0 0 0 0 0 0 0 0 0 0 0 0 0 0 0 0 0 0 0 0 0 0 0 0 0 0 0
0 0 0 0 0 0 0 0 0 0 0 0 0 0 0 0 0 0 0 0 0 0 0 0 0 0 0 0 0 0 0 0 0 0 0 0 0 0 0 0 0 0 0
0 0 0 0 0 0 0 0 0 0 0 0 0 0 0 0 0 0 0 0 0 0 0 0 0 0 0 0 0 0 0 0 0 0 0 0 0 0 0 0 0 0 0
0 0 0 0 0 0 0 0 0 0 0 0 0 0 0 0 0 0 0 0 0 0 0 0 0 0 0 0 0 0 0 0 0 0 0 0 0 0 0 0 0 0 0
0 0 0 0 0 0 0 0 0 0 0 0 0 0 0 0 0 0 0 0 0 0 0 0 0 0 0 0 0 0 0 0 0 0 0 0 0 0 0 0 0 0 0
0 0 0 0 0 0 0 0 0 0 0 0 0 0 0 0 0 0 0 0 0 0 0 0 0 0 0 0 0 0 0 0 0 0 0 0 0 0 0 0 0 0 0
0 0 0 0 0 0 0 0 0 0 0 0 0 0 0 0 0 0 0 0 0 0 0 0 0 0 0 0 0 0 0 0 0 0 0 0 0 0 0 0 0 0 0
Wind_Speed_500mb
12 7 13 16 18 19 20 21 19 19 10 4 5 7 7 7 5 13 15 14 15 17 18 21 20 22 24 26 29 29 30 38 38 15 16 14 7 25 38 36 48 45 47
20 16 14 17 21 22 23 22 20 18 16 11 16 10 8 7 9 13 11 11 12 13 14 17 18 20 22 26 27 30 27 31 38 32 17 15 5 29 36 45 55 46 42
29 23 21 20 23 24 23 23 20 16 15 13 12 11 7 6 8 7 6 7 9 12 14 15 16 18 19 22 24 28 28 32 30 37 27 12 14 31 28 50 54 46 40
34 30 28 24 27 27 23 21 20 19 18 19 16 13 8 10 10 7 5 6 8 10 11 12 13 14 16 16 21 25 27 27 30 30 31 25 23 22 21 42 52 48 42
41 37 32 30 28 26 27 25 22 21 20 19 17 16 14 13 11 8 4 3 3 5 6 8 9 10 13 17 20 21 24 27 29 32 28 25 25 37 24 26 60 51 39
44 37 35 35 31 26 26 25 24 21 19 20 19 19 18 16 14 11 7 6 5 6 8 9 10 11 13 16 18 21 24 28 29 31 34 35 33 35 31 31 48 41 48
46 42 39 37 33 31 29 28 25 22 23 20 19 18 18 19 17 14 11 8 8 10 14 15 16 17 20 22 24 25 28 29 30 31 34 33 33 33 35 37 44 38 38
43 38 36 33 33 35 32 29 28 26 23 20 17 18 19 20 19 17 16 17 18 19 20 20 20 20 21 22 22 22 25 28 32 34 35 34 36 37 39 39 46 44 29
43 38 36 41 37 35 35 34 31 28 26 23 21 22 23 23 25 25 25 23 22 22 21 20 18 18 18 19 21 24 28 27 30 33 34 35 36 37 39 38 42 42 30
44 40 41 43 41 36 36 35 33 31 28 25 27 29 30 31 28 27 25 24 23 20 19 16 15 15 17 20 21 23 25 24 27 30 32 36 38 39 42 44 41 39 32
46 44 46 44 42 40 40 39 37 34 33 34 36 36 34 31 29 27 25 23 22 19 15 14 14 14 16 19 18 19 20 21 25 30 32 36 40 43 43 44 44 41 40
45 43 48 49 46 44 44 42 40 38 38 39 38 36 34 32 29 27 25 23 20 16 15 13 11 13 13 12 13 15 17 20 25 30 33 38 40 42 44 46 46 48 45
45 43 45 50 49 50 48 46 46 47 48 44 40 38 35 33 30 28 25 22 18 17 15 13 10 9 7 8 10 13 17 21 25 30 34 38 40 44 46 48 50 52 51
52 48 48 50 52 53 53 52 52 51 48 46 43 40 37 34 32 29 25 22 20 17 14 11 8 4 4 6 10 13 16 20 24 30 34 36 40 43 45 46 50 52 55
58 57 57 58 57 57 57 58 57 54 51 49 46 43 39 36 32 29 25 23 20 17 14 11 6 3 3 5 9 12 14 17 23 27 30 33 37 40 42 44 47 52 55
62 65 64 66 68 67 67 65 62 59 56 52 48 44 41 38 34 29 27 24 21 17 13 9 7 4 3 6 8 10 14 18 20 21 23 25 32 33 37 41 45 50 53
77 80 82 81 78 77 75 73 68 64 60 55 50 47 43 39 35 33 29 25 22 18 14 11 8 6 5 8 11 10 15 16 16 17 18 21 26 31 33 37 40 43 47
79 86 88 84 81 79 78 74 72 68 63 59 54 49 45 42 38 35 32 28 24 20 16 14 12 10 9 12 12 11 14 11 10 12 15 17 23 29 35 38 41 45 48
81 86 85 86 85 88 85 82 76 71 67 62 56 52 48 44 41 38 34 31 27 23 19 16 16 16 14 16 16 12 10 6 3 6 10 17 23 31 37 41 46 50 52
84 88 87 90 92 93 93 87 82 77 72 65 58 53 50 47 43 39 35 32 29 25 22 21 20 19 19 19 18 14 10 6 4 8 14 19 26 33 39 45 50 54 58
88 85 90 99 101 99 97 92 85 80 71 65 60 56 52 48 44 41 37 34 31 28 26 24 24 24 24 24 22 17 13 10 10 13 17 22 28 35 40 46 50 55 61
91 92 97 101 103 102 100 95 88 78 73 66 61 57 53 50 46 42 40 37 33 30 29 29 28 29 29 29 24 20 18 15 16 18 21 26 32 37 42 46 50 55 60
90 94 99 104 105 103 101 97 90 84 75 69 63 57 54 51 48 46 42 39 36 34 33 33 34 34 33 30 27 25 24 22 22 22 25 30 35 40 43 47 52 57 63
91 97 101 106 108 103 101 97 92 82 75 69 62 59 56 54 51 48 45 42 40 38 36 37 39 39 37 34 31 29 29 29 29 29 31 34 38 42 47 51 55 60 64
89 96 104 106 108 109 108 100 89 82 76 69 64 60 58 56 52 48 44 43 41 39 39 40 42 43 42 37 36 35 33 34 34 36 36 39 42 48 52 57 61 64 68
86 91 99 103 107 107 106 98 91 83 76 71 67 62 59 56 53 50 48 46 44 42 42 43 44 46 44 42 41 40 40 40 40 43 41 45 49 54 58 63 67 67 71
Wind_Direction_500mb
174 172 184 179 179 193 200 211 216 225 224 197 130 138 142 138 79 70 77 68 51 47 45 45 36 35 32 31 32 41 28 25 36 62 43 42 21 44 31 29 35 30 29
182 187 188 182 189 195 202 210 217 218 215 197 177 190 207 143 96 91 79 61 53 35 31 32 28 31 36 33 33 40 42 39 33 45 42 28 7 29 10 31 27 43 26
192 189 194 202 201 201 200 202 205 208 199 188 181 181 186 139 134 113 85 66 34 28 32 34 34 32 31 32 34 41 43 50 55 50 59 34 17 356 0 13 19 29 31
200 199 192 209 216 211 209 206 206 203 196 182 163 172 172 203 177 147 126 66 40 42 52 52 46 43 46 43 40 43 43 45 51 60 70 54 32 21 347 11 26 36 37
197 205 194 208 222 218 212 206 202 202 201 200 199 195 193 186 176 176 150 86 53 64 60 57 46 51 49 48 45 40 41 44 45 48 47 45 38 34 26 349 11 33 42
195 198 205 210 219 216 206 200 199 198 203 200 190 187 185 185 189 190 174 159 111 94 77 74 69 65 60 57 55 53 54 55 56 54 52 49 45 33 32 4 9 18 27
193 190 200 202 209 210 202 198 198 195 197 188 187 191 192 185 189 188 181 159 135 107 95 91 90 85 79 73 70 69 66 62 59 55 55 55 49 44 36 21 15 1 12
195 190 190 195 205 207 202 198 198 195 194 193 194 196 194 190 187 181 164 147 131 119 106 97 91 84 80 77 73 71 68 63 59 56 52 46 41 36 35 29 21 13 18
193 190 187 199 203 204 200 199 200 196 196 196 195 198 191 180 166 155 149 141 131 120 110 102 94 86 80 76 74 73 67 58 52 48 45 42 39 38 38 39 34 31 5
190 190 194 200 204 207 206 203 199 198 195 197 191 180 169 162 159 153 147 140 132 123 115 107 95 89 86 80 71 64 60 49 48 45 45 45 45 44 41 39 34 33 23
191 191 196 202 206 206 202 201 198 196 190 180 175 170 169 165 159 155 150 144 137 131 122 112 105 98 87 76 65 57 54 50 53 54 52 53 49 46 42 38 34 30 21
193 196 199 202 203 201 202 199 196 191 182 176 173 173 172 165 163 160 155 151 147 142 136 130 118 101 87 72 63 58 57 59 60 58 55 55 51 49 44 40 34 31 22
192 191 196 199 199 200 199 196 191 184 180 178 178 176 174 171 169 166 163 160 157 153 151 139 129 114 90 72 70 67 65 63 64 59 58 57 54 50 47 41 36 30 25
193 194 196 199 200 199 196 193 187 185 182 181 180 180 180 176 175 174 171 170 165 163 158 153 151 127 97 92 80 74 74 71 69 66 61 56 54 50 44 39 33 25 21
196 196 196 197 197 195 193 190 189 187 186 185 184 183 184 183 182 181 178 176 174 174 171 169 175 174 127 127 105 89 83 78 73 71 66 56 52 46 40 33 27 21 16
201 198 198 198 199 197 195 192 190 190 189 188 188 188 188 188 188 186 184 183 182 184 186 193 195 187 170 131 128 121 101 86 79 71 63 53 46 40 34 27 21 15 9
201 201 202 203 201 199 196 193 192 191 191 191 191 191 192 193 192 191 190 191 193 196 202 211 214 208 183 168 154 139 110 97 80 66 53 41 33 26 21 17 12 7 2
210 206 203 204 202 199 195 194 194 194 193 194 194 195 195 196 196 196 197 199 203 209 215 219 222 218 203 190 175 161 126 111 83 59 38 22 16 10 6 3 1 358 355
227 212 209 205 200 198 195 195 195 195 196 197 197 197 199 199 199 200 202 205 212 218 225 228 226 221 211 207 198 185 151 138 92 28 11 359 1 357 355 353 351 349 347
222 213 207 202 201 198 197 196 196 197 198 198 198 199 201 201 202 205 208 212 218 226 231 233 231 226 218 213 215 210 192 204 276 320 333 341 349 348 347 346 344 342 340
211 209 206 203 201 198 197 197 198 200 199 200 200 201 202 203 206 209 213 217 223 230 235 236 234 229 223 219 226 230 234 244 276 303 318 330 338 338 339 339 339 336 334
204 205 201 200 201 200 198 198 199 199 200 201 202 202 204 207 210 213 217 221 226 232 236 239 237 232 228 227 232 243 255 266 281 297 312 322 327 329 331 332 332 331 330
205 202 200 198 200 200 200 200 200 200 200 201 202 204 206 210 213 216 219 223 228 234 239 242 242 237 235 236 241 249 260 269 281 293 304 313 318 322 325 328 328 328 331
203 201 197 199 200 199 201 204 202 200 201 202 202 205 209 212 215 219 221 227 233 238 243 245 244 243 243 245 248 255 263 271 280 290 303 310 313 317 322 325 327 328 328
202 201 201 201 201 198 200 202 201 202 200 201 205 207 211 214 218 222 228 234 239 244 249 250 248 247 249 253 256 261 266 272 280 289 298 303 310 315 319 321 323 324 325
201 200 200 201 201 199 200 201 201 202 202 202 205 210 214 216 220 224 231 237 243 248 253 254 252 250 251 255 259 262 267 273 280 286 293 300 305 309 313 316 318 320 321
Wind_Speed_850mb
12 7 13 16 18 19 20 21 19 19 10 4 5 7 7 7 5 13 15 14 15 17 18 21 20 22 24 26 29 29 30 38 38 15 16 14 7 25 38 36 48 45 47
20 16 14 17 21 22 23 22 20 18 16 11 16 10 8 7 9 13 11 11 12 13 14 17 18 20 22 26 27 30 27 31 38 32 17 15 5 29 36 45 55 46 42
29 23 21 20 23 24 23 23 20 16 15 13 12 11 7 6 8 7 6 7 9 12 14 15 16 18 19 22 24 28 28 32 30 37 27 12 14 31 28 50 54 46 40
34 30 28 24 27 27 23 21 20 19 18 19 16 13 8 10 10 7 5 6 8 10 11 12 13 14 16 16 21 25 27 27 30 30 31 25 23 22 21 42 52 48 42
41 37 32 30 28 26 27 25 22 21 20 19 17 16 14 13 11 8 4 3 3 5 6 8 9 10 13 17 20 21 24 27 29 32 28 25 25 37 24 26 60 51 39
44 37 35 35 31 26 26 25 24 21 19 20 19 19 18 16 14 11 7 6 5 6 8 9 10 11 13 16 18 21 24 28 29 31 34 35 33 35 31 31 48 41 48
46 42 39 37 33 31 29 28 25 22 23 20 19 18 18 19 17 14 11 8 8 10 14 15 16 17 20 22 24 25 28 29 30 31 34 33 33 33 35 37 44 38 38
43 38 36 33 33 35 32 29 28 26 23 20 17 18 19 20 19 17 16 17 18 19 20 20 20 20 21 22 22 22 25 28 32 34 35 34 36 37 39 39 46 44 29
43 38 36 41 37 35 35 34 31 28 26 23 21 22 23 23 25 25 25 23 22 22 21 20 18 18 18 19 21 24 28 27 30 33 34 35 36 37 39 38 42 42 30
44 40 41 43 41 36 36 35 33 31 28 25 27 29 30 31 28 27 25 24 23 20 19 16 15 15 17 20 21 23 25 24 27 30 32 36 38 39 42 44 41 39 32
46 44 46 44 42 40 40 39 37 34 33 34 36 36 34 31 29 27 25 23 22 19 15 14 14 14 16 19 18 19 20 21 25 30 32 36 40 43 43 44 44 41 40
45 43 48 49 46 44 44 42 40 38 38 39 38 36 34 32 29 27 25 23 20 16 15 13 11 13 13 12 13 15 17 20 25 30 33 38 40 42 44 46 46 48 45
45 43 45 50 49 50 48 46 46 47 48 44 40 38 35 33 30 28 25 22 18 17 15 13 10 9 7 8 10 13 17 21 25 30 34 38 40 44 46 48 50 52 51
52 48 48 50 52 53 53 52 52 51 48 46 43 40 37 34 32 29 25 22 20 17 14 11 8 4 4 6 10 13 16 20 24 30 34 36 40 43 45 46 50 52 55
58 57 57 58 57 57 57 58 57 54 51 49 46 43 39 36 32 29 25 23 20 17 14 11 6 3 3 5 9 12 14 17 23 27 30 33 37 40 42 44 47 52 55
62 65 64 66 68 67 67 65 62 59 56 52 48 44 41 38 34 29 27 24 21 17 13 9 7 4 3 6 8 10 14 18 20 21 23 25 32 33 37 41 45 50 53
77 80 82 81 78 77 75 73 68 64 60 55 50 47 43 39 35 33 29 25 22 18 14 11 8 6 5 8 11 10 15 16 16 17 18 21 26 31 33 37 40 43 47
79 86 88 84 81 79 78 74 72 68 63 59 54 49 45 42 38 35 32 28 24 20 16 14 12 10 9 12 12 11 14 11 10 12 15 17 23 29 35 38 41 45 48
81 86 85 86 85 88 85 82 76 71 67 62 56 52 48 44 41 38 34 31 27 23 19 16 16 16 14 16 16 12 10 6 3 6 10 17 23 31 37 41 46 50 52
84 88 87 90 92 93 93 87 82 77 72 65 58 53 50 47 43 39 35 32 29 25 22 21 20 19 19 19 18 14 10 6 4 8 14 19 26 33 39 45 50 54 58
88 85 90 99 101 99 97 92 85 80 71 65 60 56 52 48 44 41 37 34 31 28 26 24 24 24 24 24 22 17 13 10 10 13 17 22 28 35 40 46 50 55 61
91 92 97 101 103 102 100 95 88 78 73 66 61 57 53 50 46 42 40 37 33 30 29 29 28 29 29 29 24 20 18 15 16 18 21 26 32 37 42 46 50 55 60
90 94 99 104 105 103 101 97 90 84 75 69 63 57 54 51 48 46 42 39 36 34 33 33 34 34 33 30 27 25 24 22 22 22 25 30 35 40 43 47 52 57 63
91 97 101 106 108 103 101 97 92 82 75 69 62 59 56 54 51 48 45 42 40 38 36 37 39 39 37 34 31 29 29 29 29 29 31 34 38 42 47 51 55 60 64
89 96 104 106 108 109 108 100 89 82 76 69 64 60 58 56 52 48 44 43 41 39 39 40 42 43 42 37 36 35 33 34 34 36 36 39 42 48 52 57 61 64 68
86 91 99 103 107 107 106 98 91 83 76 71 67 62 59 56 53 50 48 46 44 42 42 43 44 46 44 42 41 40 40 40 40 43 41 45 49 54 58 63 67 67 71
Wind_Direction_850mb
174 172 184 179 179 193 200 211 216 225 224 197 130 138 142 138 79 70 77 68 51 47 45 45 36 35 32 31 32 41 28 25 36 62 43 42 21 44 31 29 35 30 29
182 187 188 182 189 195 202 210 217 218 215 197 177 190 207 143 96 91 79 61 53 35 31 32 28 31 36 33 33 40 42 39 33 45 42 28 7 29 10 31 27 43 26
192 189 194 202 201 201 200 202 205 208 199 188 181 181 186 139 134 113 85 66 34 28 32 34 34 32 31 32 34 41 43 50 55 50 59 34 17 356 0 13 19 29 31
200 199 192 209 216 211 209 206 206 203 196 182 163 172 172 203 177 147 126 66 40 42 52 52 46 43 46 43 40 43 43 45 51 60 70 54 32 21 347 11 26 36 37
197 205 194 208 222 218 212 206 202 202 201 200 199 195 193 186 176 176 150 86 53 64 60 57 46 51 49 48 45 40 41 44 45 48 47 45 38 34 26 349 11 33 42
195 198 205 210 219 216 206 200 199 198 203 200 190 187 185 185 189 190 174 159 111 94 77 74 69 65 60 57 55 53 54 55 56 54 52 49 45 33 32 4 9 18 27
193 190 200 202 209 210 202 198 198 195 197 188 187 191 192 185 189 188 181 159 135 107 95 91 90 85 79 73 70 69 66 62 59 55 55 55 49 44 36 21 15 1 12
195 190 190 195 205 207 202 198 198 195 194 193 194 196 194 190 187 181 164 147 131 119 106 97 91 84 80 77 73 71 68 63 59 56 52 46 41 36 35 29 21 13 18
193 190 187 199 203 204 200 199 200 196 196 196 195 198 191 180 166 155 149 141 131 120 110 102 94 86 80 76 74 73 67 58 52 48 45 42 39 38 38 39 34 31 5
190 190 194 200 204 207 206 203 199 198 195 197 191 180 169 162 159 153 147 140 132 123 115 107 95 89 86 80 71 64 60 49 48 45 45 45 45 44 41 39 34 33 23
191 191 196 202 206 206 202 201 198 196 190 180 175 170 169 165 159 155 150 144 137 131 122 112 105 98 87 76 65 57 54 50 53 54 52 53 49 46 42 38 34 30 21
193 196 199 202 203 201 202 199 196 191 182 176 173 173 172 165 163 160 155 151 147 142 136 130 118 101 87 72 63 58 57 59 60 58 55 55 51 49 44 40 34 31 22
192 191 196 199 199 200 199 196 191 184 180 178 178 176 174 171 169 166 163 160 157 153 151 139 129 114 90 72 70 67 65 63 64 59 58 57 54 50 47 41 36 30 25
193 194 196 199 200 199 196 193 187 185 182 181 180 180 180 176 175 174 171 170 165 163 158 153 151 127 97 92 80 74 74 71 69 66 61 56 54 50 44 39 33 25 21
196 196 196 197 197 195 193 190 189 187 186 185 184 183 184 183 182 181 178 176 174 174 171 169 175 174 127 127 105 89 83 78 73 71 66 56 52 46 40 33 27 21 16
201 198 198 198 199 197 195 192 190 190 189 188 188 188 188 188 188 186 184 183 182 184 186 193 195 187 170 131 128 121 101 86 79 71 63 53 46 40 34 27 21 15 9
201 201 202 203 201 199 196 193 192 191 191 191 191 191 192 193 192 191 190 191 193 196 202 211 214 208 183 168 154 139 110 97 80 66 53 41 33 26 21 17 12 7 2
210 206 203 204 202 199 195 194 194 194 193 194 194 195 195 196 196 196 197 199 203 209 215 219 222 218 203 190 175 161 126 111 83 59 38 22 16 10 6 3 1 358 355
227 212 209 205 200 198 195 195 195 195 196 197 197 197 199 199 199 200 202 205 212 218 225 228 226 221 211 207 198 185 151 138 92 28 11 359 1 357 355 353 351 349 347
222 213 207 202 201 198 197 196 196 197 198 198 198 199 201 201 202 205 208 212 218 226 231 233 231 226 218 213 215 210 192 204 276 320 333 341 349 348 347 346 344 342 340
211 209 206 203 201 198 197 197 198 200 199 200 200 201 202 203 206 209 213 217 223 230 235 236 234 229 223 219 226 230 234 244 276 303 318 330 338 338 339 339 339 336 334
204 205 201 200 201 200 198 198 199 199 200 201 202 202 204 207 210 213 217 221 226 232 236 239 237 232 228 227 232 243 255 266 281 297 312 322 327 329 331 332 332 331 330
205 202 200 198 200 200 200 200 200 200 200 201 202 204 206 210 213 216 219 223 228 234 239 242 242 237 235 236 241 249 260 269 281 293 304 313 318 322 325 328 328 328 331
203 201 197 199 200 199 201 204 202 200 201 202 202 205 209 212 215 219 221 227 233 238 243 245 244 243 243 245 248 255 263 271 280 290 303 310 313 317 322 325 327 328 328
202 201 201 201 201 198 200 202 201 202 200 201 205 207 211 214 218 222 228 234 239 244 249 250 248 247 249 253 256 261 266 272 280 289 298 303 310 315 319 321 323 324 325
201 200 200 201 201 199 200 201 201 202 202 202 205 210 214 216 220 224 231 237 243 248 253 254 252 250 251 255 259 262 267 273 280 286 293 300 305 309 313 316 318 320 321